Owatonna, MN

10:01 AM CDT on April 25, 2017 (GMT -0500)
Owatonna Degner Regional

Weather History for KOWA - February, 2013

Change the Weather History Date:

Thursday, February 7, 2013

  Actual Average Record
Temperature  
Mean Temperature 28 °F -  
Max Temperature 33 °F 24 °F 59 °F (1987)
Min Temperature 23 °F 3 °F -23 °F (1972)
Degree Days  
Heating Degree Days 37    
Moisture  
Dew Point 22 °F    
Average Humidity 76    
Maximum Humidity 86    
Minimum Humidity 64    
Precipitation  
Precipitation 0.00 in - - ()
Sea Level Pressure  
Sea Level Pressure 30.04 in    
Wind  
Wind Speed 8 mph (North)    
Max Wind Speed 17 mph    
Max Gust Speed 22 mph    
Visibility 4 miles    
Events      
Averages and records for this station are not official NWS values.
T = Trace of Precipitation, MM = Missing Value Source: NWS Daily Summary

Daily Weather History Graph

Daily Weather History Graph

Search for Another Location

Airport or City:

Trip Planner

Search our weather history database for the weather conditions in past years. The results will help you decide how hot, cold, wet, or windy it might be!

Date:

Astronomy

Feb. 07, 2013 Rise Set
Actual Time 7:23 AM CST 5:31 PM CST
Civil Twilight 6:52 AM CST 6:02 PM CST
Nautical Twilight 6:18 AM CST 6:36 PM CST
Astronomical Twilight 5:44 AM CST 7:10 PM CST
Moon 5:06 AM CST (2/7) 2:54 PM CST (2/7)
Length of Visible Light 11h 09m
Length of Day
10h 08m
Waning Crescent, 9% of the Moon is Illuminated
Feb 7
Waning Crescent
Feb 10
New
Feb 17
First Quarter
Feb 25
Full
Mar 4
Last Quarter

Hourly Weather History & Observations

Time (CST) Temp. Windchill Dew Point Humidity Pressure Visibility Wind Dir Wind Speed Gust Speed Precip Events Conditions
12:34 AM 33.8 °F 25.8 °F 26.6 °F 75% 29.91 in 7.0 mi SSE 10.4 mph - N/A   Clear
12:54 AM 33.8 °F 26.4 °F 28.4 °F 81% 29.92 in 7.0 mi SSE 9.2 mph - N/A   Clear
1:14 AM 33.8 °F 28.6 °F 26.6 °F 75% 29.92 in 7.0 mi ESE 5.8 mph - N/A   Clear
1:34 AM 32.0 °F - 26.6 °F 80% 29.92 in 5.0 mi Calm Calm - N/A   Haze
1:54 AM 32.0 °F - 26.6 °F 80% 29.92 in 4.0 mi Calm Calm - N/A   Haze
2:14 AM 30.2 °F - 24.8 °F 80% 29.93 in 1.8 mi Calm Calm - N/A   Haze
2:33 AM 28.4 °F - 24.8 °F 86% 29.93 in 0.2 mi Calm Calm - N/A   Haze
2:54 AM 24.8 °F - 19.4 °F 80% 29.93 in 0.2 mi Calm Calm - N/A   Haze
3:14 AM 24.8 °F - 17.6 °F 74% 29.92 in 0.2 mi Calm Calm - N/A   Haze
3:33 AM 24.8 °F - 19.4 °F 80% 29.92 in 0.2 mi Calm Calm - N/A   Haze
3:54 AM 23.0 °F 18.4 °F 17.6 °F 80% 29.92 in 0.2 mi North 3.5 mph - N/A   Haze
4:14 AM 24.8 °F - 19.4 °F 80% 29.93 in 0.2 mi Calm Calm - N/A   Haze
4:34 AM 28.4 °F 24.6 °F 24.8 °F 86% 29.94 in 1.5 mi NNE 3.5 mph - N/A   Haze
4:54 AM 28.4 °F 21.2 °F 24.8 °F 86% 29.94 in 2.5 mi NNE 6.9 mph - N/A   Haze
5:14 AM 28.4 °F 21.2 °F 24.8 °F 86% 29.94 in 3.0 mi North 6.9 mph - N/A   Haze
5:34 AM 28.4 °F 21.2 °F 23.0 °F 80% 29.94 in 3.0 mi NNE 6.9 mph - N/A   Haze
5:53 AM 26.6 °F 18.2 °F 21.2 °F 80% 29.94 in 3.0 mi North 8.1 mph - N/A   Haze
6:14 AM 26.6 °F 18.2 °F 21.2 °F 80% 29.95 in 2.5 mi North 8.1 mph - N/A   Haze
6:34 AM 26.6 °F 19.1 °F 21.2 °F 80% 29.95 in 2.5 mi North 6.9 mph - N/A   Haze
6:54 AM 28.4 °F 20.4 °F 23.0 °F 80% 29.96 in 2.0 mi NNE 8.1 mph - N/A   Haze
7:14 AM 28.4 °F 19.7 °F 23.0 °F 80% 29.97 in 2.5 mi North 9.2 mph - N/A   Haze
7:34 AM 28.4 °F 21.2 °F 23.0 °F 80% 29.97 in 2.5 mi NNE 6.9 mph - N/A   Haze
7:54 AM 28.4 °F 19.7 °F 23.0 °F 80% 29.97 in 1.5 mi NNE 9.2 mph - N/A   Haze
8:14 AM 28.4 °F 21.2 °F 23.0 °F 80% 29.99 in 1.5 mi North 6.9 mph - N/A   Haze
8:34 AM 28.4 °F 20.4 °F 23.0 °F 80% 30.01 in 1.2 mi North 8.1 mph - N/A   Haze
8:54 AM 28.4 °F 19.7 °F 23.0 °F 80% 30.02 in 1.2 mi North 9.2 mph - N/A   Haze
9:14 AM 28.4 °F 19.1 °F 23.0 °F 80% 30.03 in 1.0 mi North 10.4 mph - N/A   Haze
9:34 AM 28.4 °F 19.7 °F 23.0 °F 80% 30.02 in 0.8 mi North 9.2 mph - N/A   Haze
9:54 AM 28.4 °F 19.7 °F 23.0 °F 80% 30.02 in 0.8 mi North 9.2 mph - N/A   Haze
10:14 AM 28.4 °F 19.7 °F 23.0 °F 80% 30.02 in 0.8 mi North 9.2 mph - N/A   Haze
10:34 AM 28.4 °F 18.5 °F 23.0 °F 80% 30.03 in 0.8 mi North 11.5 mph - N/A   Haze
10:54 AM 28.4 °F 17.5 °F 23.0 °F 80% 30.04 in 0.8 mi North 13.8 mph - N/A   Haze
11:13 AM 28.4 °F 17.5 °F 23.0 °F 80% 30.04 in 1.0 mi North 13.8 mph - N/A   Haze
11:34 AM 28.4 °F 20.4 °F 23.0 °F 80% 30.03 in 1.2 mi North 8.1 mph - N/A   Haze
11:53 AM 28.4 °F 18.0 °F 23.0 °F 80% 30.03 in 1.2 mi North 12.7 mph - N/A   Haze
12:14 PM 28.4 °F 17.0 °F 23.0 °F 80% 30.03 in 1.8 mi North 15.0 mph - N/A   Haze
12:34 PM 28.4 °F 18.0 °F 23.0 °F 80% 30.03 in 1.8 mi North 12.7 mph - N/A   Haze
12:54 PM 28.4 °F 18.5 °F 24.8 °F 86% 30.03 in 1.5 mi North 11.5 mph - N/A   Haze
1:14 PM 28.4 °F 17.0 °F 23.0 °F 80% 30.03 in 1.8 mi North 15.0 mph - N/A   Haze
1:34 PM 28.4 °F 16.2 °F 23.0 °F 80% 30.03 in 1.8 mi North 17.3 mph - N/A   Haze
1:53 PM 28.4 °F 16.6 °F 23.0 °F 80% 30.03 in 1.8 mi North 16.1 mph 19.6 mph N/A   Haze
2:14 PM 28.4 °F 18.0 °F 23.0 °F 80% 30.03 in 1.8 mi North 12.7 mph - N/A   Light Freezing Rain
2:34 PM 28.4 °F 18.0 °F 23.0 °F 80% 30.03 in 1.8 mi North 12.7 mph 16.1 mph N/A   Light Freezing Rain
2:54 PM 28.4 °F 19.1 °F 21.2 °F 74% 30.04 in 3.0 mi North 10.4 mph 17.3 mph N/A   Haze
3:14 PM 28.4 °F 18.5 °F 21.2 °F 74% 30.05 in 4.0 mi North 11.5 mph 18.4 mph N/A   Haze
3:34 PM 28.4 °F 17.5 °F 21.2 °F 74% 30.05 in 3.0 mi North 13.8 mph 21.9 mph N/A   Haze
3:53 PM 28.4 °F 18.0 °F 21.2 °F 74% 30.06 in 2.5 mi North 12.7 mph - N/A   Haze
4:14 PM 28.4 °F 18.0 °F 21.2 °F 74% 30.07 in 3.0 mi North 12.7 mph - N/A   Haze
4:34 PM 28.4 °F 17.5 °F 21.2 °F 74% 30.08 in 3.0 mi North 13.8 mph - N/A   Haze
4:54 PM 28.4 °F 16.6 °F 21.2 °F 74% 30.09 in 5.0 mi North 16.1 mph 19.6 mph N/A   Haze
5:33 PM 28.4 °F 17.5 °F 21.2 °F 74% 30.11 in 7.0 mi North 13.8 mph - N/A   Overcast
5:54 PM 28.4 °F 17.5 °F 19.4 °F 69% 30.11 in 10.0 mi North 13.8 mph - N/A   Overcast
6:13 PM 28.4 °F 18.0 °F 19.4 °F 69% 30.12 in 10.0 mi North 12.7 mph - N/A   Overcast
6:34 PM 28.4 °F 18.0 °F 19.4 °F 69% 30.13 in 10.0 mi North 12.7 mph - N/A   Overcast
6:54 PM 28.4 °F 18.5 °F 19.4 °F 69% 30.14 in 10.0 mi North 11.5 mph - N/A   Overcast
7:14 PM 28.4 °F 19.1 °F 19.4 °F 69% 30.14 in 10.0 mi North 10.4 mph - N/A   Overcast
7:34 PM 28.4 °F 18.5 °F 19.4 °F 69% 30.14 in 10.0 mi NNW 11.5 mph - N/A   Overcast
7:53 PM 28.4 °F 19.1 °F 19.4 °F 69% 30.15 in 10.0 mi NNW 10.4 mph - N/A   Overcast
8:14 PM 28.4 °F 19.1 °F 19.4 °F 69% 30.16 in 10.0 mi NNW 10.4 mph - N/A   Overcast
8:34 PM 28.4 °F 18.5 °F 19.4 °F 69% 30.16 in 10.0 mi NNW 11.5 mph - N/A   Overcast
8:54 PM 28.4 °F 18.5 °F 17.6 °F 64% 30.16 in 10.0 mi North 11.5 mph - N/A   Overcast
9:14 PM 26.6 °F 16.2 °F 17.6 °F 69% 30.16 in 10.0 mi North 11.5 mph - N/A   Overcast
9:34 PM 26.6 °F 17.5 °F 17.6 °F 69% 30.17 in 10.0 mi NNW 9.2 mph - N/A   Overcast
9:53 PM 26.6 °F 18.2 °F 17.6 °F 69% 30.17 in 10.0 mi NNW 8.1 mph - N/A   Overcast
10:14 PM 26.6 °F 17.5 °F 17.6 °F 69% 30.18 in 10.0 mi NNW 9.2 mph - N/A   Overcast
10:33 PM 26.6 °F 18.2 °F 17.6 °F 69% 30.18 in 10.0 mi North 8.1 mph - N/A   Mostly Cloudy
10:54 PM 26.6 °F 18.2 °F 17.6 °F 69% 30.18 in 10.0 mi North 8.1 mph - N/A   Overcast
11:14 PM 26.6 °F 18.2 °F 17.6 °F 69% 30.19 in 10.0 mi North 8.1 mph - N/A   Overcast
11:34 PM 26.6 °F 18.2 °F 17.6 °F 69% 30.19 in 10.0 mi North 8.1 mph - N/A   Overcast
11:54 PM 28.4 °F 20.4 °F 19.4 °F 69% 30.20 in 10.0 mi North 8.1 mph - N/A   Overcast